Weather History for Hill City, KS

Change the Weather History Date:

Saturday, January 24, 2015

  Actual Average Record
Temperature  
Mean Temperature 46 °F 30 °F  
Max Temperature 62 °F 42 °F 72 °F (1981)
Min Temperature 29 °F 17 °F -6 °F (1957)
Degree Days  
Heating Degree Days 19    
Moisture  
Dew Point 28 °F    
Average Humidity 56    
Maximum Humidity 79    
Minimum Humidity 19    
Precipitation  
Precipitation 0.01 in 0.02 in 0.01 in (2015)
Month to date precipitation 0.02 0.29  
Year to date precipitation 0.02 0.29  
Sea Level Pressure  
Sea Level Pressure 29.98 in    
Wind  
Wind Speed 11 mph (West)    
Max Wind Speed 28 mph    
Max Gust Speed 37 mph    
Visibility 10 miles    
Events      
T = Trace of Precipitation, MM = Missing Value Source: NWS Daily Summary

Daily Weather History Graph

Daily Weather History Graph

Search for Another Location

Airport:

Trip Planner

Search our weather history database for the weather conditions in past years. The results will help you decide how hot, cold, wet, or windy it might be!

Date:

Astronomy

Jan. 24, 2015 Rise Set
Actual Time 7:53 AM CST 5:50 PM CST
Civil Twilight 7:24 AM CST 6:19 PM CST
Nautical Twilight 6:51 AM CST 6:51 PM CST
Astronomical Twilight 6:19 AM CST 7:23 PM CST
Moon 10:24 AM CST (1/24) 11:08 PM CST (1/24)
Length of Visible Light 10h 54m
Length of Day
9h 57m
Waxing Crescent, 24% of the Moon is Illuminated
Jan 24
Waxing Crescent
Jan 26
First Quarter
Feb 3
Full
Feb 11
Last Quarter
Feb 18
New

Hourly Weather History & Observations

Time (CST) Temp. Windchill Dew Point Humidity Pressure Visibility Wind Dir Wind Speed Gust Speed Precip Events Conditions
12:53 AM 34.0 °F 27.2 °F 26.1 °F 73% 30.16 in 10.0 mi WNW 8.1 mph - N/A   Clear
1:53 AM 33.1 °F 27.7 °F 25.0 °F 72% 30.14 in 10.0 mi West 5.8 mph - N/A   Clear
2:53 AM 32.0 °F 27.5 °F 25.0 °F 75% 30.14 in 10.0 mi WSW 4.6 mph - N/A   Clear
3:53 AM 32.0 °F 25.6 °F 25.0 °F 75% 30.11 in 10.0 mi West 6.9 mph - N/A   Clear
4:53 AM 30.9 °F 24.3 °F 25.0 °F 79% 30.11 in 10.0 mi West 6.9 mph - N/A   Clear
5:53 AM 32.0 °F 25.6 °F 25.0 °F 75% 30.11 in 10.0 mi West 6.9 mph - N/A   Clear
6:53 AM 33.1 °F 26.1 °F 24.1 °F 70% 30.09 in 10.0 mi West 8.1 mph - N/A   Clear
7:53 AM 30.9 °F 27.5 °F 24.1 °F 76% 30.09 in 10.0 mi WSW 3.5 mph - N/A   Clear
8:53 AM 35.1 °F 27.4 °F 25.0 °F 67% 30.07 in 10.0 mi West 10.4 mph - N/A   Clear
9:53 AM 42.1 °F 35.7 °F 27.0 °F 55% 30.06 in 10.0 mi West 11.5 mph - N/A   Clear
10:53 AM 51.1 °F - 28.0 °F 41% 30.03 in 10.0 mi West 11.5 mph - N/A   Clear
11:53 AM 55.9 °F - 25.0 °F 30% 29.97 in 10.0 mi WSW 11.5 mph - N/A   Clear
12:53 PM 57.9 °F - 25.0 °F 28% 29.93 in 10.0 mi WSW 15.0 mph - N/A   Clear
1:53 PM 61.0 °F - 21.9 °F 22% 29.87 in 10.0 mi West 18.4 mph - N/A   Clear
2:53 PM 62.1 °F - 19.0 °F 19% 29.84 in 10.0 mi WNW 23.0 mph 31.1 mph N/A   Clear
3:53 PM 57.9 °F - 21.9 °F 25% 29.86 in 10.0 mi WNW 17.3 mph - N/A   Clear
4:53 PM 57.0 °F - 21.9 °F 26% 29.87 in 10.0 mi WNW 18.4 mph 26.5 mph N/A   Overcast
5:53 PM 46.9 °F - 39.9 °F 77% 29.87 in 10.0 mi West 13.8 mph - 0.00 in   Mostly Cloudy
6:53 PM 46.0 °F 40.2 °F 37.9 °F 73% 29.88 in 10.0 mi West 12.7 mph - 0.01 in   Overcast
7:53 PM 46.0 °F 40.6 °F 36.0 °F 68% 29.89 in 10.0 mi WNW 11.5 mph - N/A   Overcast
8:53 PM 48.0 °F - 34.0 °F 58% 29.88 in 10.0 mi WNW 15.0 mph 24.2 mph N/A   Clear
9:53 PM 48.9 °F - 33.1 °F 54% 29.88 in 10.0 mi WNW 19.6 mph 29.9 mph N/A   Mostly Cloudy
10:53 PM 48.9 °F - 34.0 °F 56% 29.89 in 10.0 mi NW 20.7 mph 31.1 mph N/A   Partly Cloudy
11:53 PM 46.9 °F - 34.0 °F 61% 29.89 in 10.0 mi NW 27.6 mph 36.8 mph N/A   Clear